Simultaneous Nadir Overpasses (SNOs) Predictions

Prediction of SNOs between GOES-15 and FY3D Satellite Orbit:

Table of predicted SNOs for the next 14.0 days since TLE Epoch: 3/2/2024
Index Date Time (GOES-15) GOES-15 Lat,Lon FY3D Lat,Lon Distance(km) Time Diff (sec)
1 03/02/2024 10:27:39 -0.04, 61.32 -0.51, 59.33 226.87 80
2 03/03/2024 10:06:30 -0.04, 61.32 0.50, 63.82 284.84 80
3 03/04/2024 22:31:21 0.05, 61.23 0.69, 58.48 314.03 80
4 03/05/2024 22:10:11 0.05, 61.23 -0.32, 62.97 197.29 80
5 03/07/2024 10:35:10 -0.06, 61.31 -0.91, 57.61 422.46 80
6 03/08/2024 10:14:00 -0.06, 61.31 0.11, 62.09 88.63 80
7 03/10/2024 22:17:42 0.07, 61.24 0.06, 61.24 0.91 80
8 03/13/2024 10:24:10 -0.07, 61.33 -0.30, 60.38 109.00 80
9 03/14/2024 10:03:00 -0.06, 61.33 0.72, 64.86 401.66 80
10 03/15/2024 22:25:12 0.07, 61.27 0.46, 59.52 198.78 80
